KDAB

Daytona Beach International Airport

Airport
ICAO code
KDAB
Summary
ICAO Region
NAM
ICAO Territory
Location

Daytona Beach, Florida,

Elevation
34 ft
Coordinates
29° 10' 46" N , 81° 3' 22" W
KCC
Airport LOS
Parallel Runway Operation
Metar
Observation
KDAB 052353Z 33005KT 10SM SCT010 17/16 A3011 RMK AO2 SLP194 T01720156 10211 20172 51001
Station
Daytona Beach, Daytona Beach Regional Airport
Date/Time
2023-02-05 23:53:00
Wind direction
330°
Wind speed
05 kts
Lowest cloud amount
scattered clouds
Temperature
17.2°C
Dew point
15.6°C
Humidity
90%
Weather condition
n/a

Description

Daytona Beach International Airport is a public county-owned airport located 5 km southwest of the central business district of Daytona Beach, in Volusia County, Florida.

Climatology

Humid “subtropical” climate (Köppen climate classification Cfa) - characterized by hot, humid summers and cool winters. Significant amounts of precipitation occur in all seasons in most areas.

Airport map

Aerial View

SKYbrary Partners:

Safety knowledge contributed by: